| time (UTC) | temp F | wind direction | speed knots | gust knots | rain 1hr in | rain 24hr in | rain mn in | humidity % | barometer mb |
| 20260901174624 | 82 | 195 | 12.2 | 20.0 | 0.00 | 0.03 | 0.01 | 33 | 1018.0 |
| 20260901173624 | 81 | 191 | 12.2 | 18.2 | 0.00 | 0.03 | 0.01 | 32 | 1017.9 |
| 20260901172623 | 82 | 160 | 10.4 | 17.4 | 0.00 | 0.03 | 0.01 | 33 | 1018.0 |
| 20260901171624 | 81 | 215 | 2.6 | 8.7 | 0.00 | 0.03 | 0.01 | 36 | 1018.3 |
| 20260901170624 | 80 | 186 | 1.7 | 6.1 | 0.00 | 0.03 | 0.01 | 38 | 1018.5 |
| 20260901165624 | 79 | 297 | 2.6 | 6.1 | 0.00 | 0.03 | 0.01 | 39 | 1018.4 |
| 20260901164625 | 79 | 46 | 0.9 | 4.3 | 0.00 | 0.03 | 0.01 | 43 | 1018.5 |
| 20260901163622 | 77 | 39 | 0.9 | 5.2 | 0.00 | 0.03 | 0.01 | 51 | 1018.5 |
| 20260901162623 | 76 | 53 | 2.6 | 6.1 | 0.00 | 0.03 | 0.01 | 61 | 1018.6 |
| 20260901161623 | 75 | 75 | 2.6 | 6.1 | 0.00 | 0.03 | 0.01 | 53 | 1018.7 |
| 20260901160621 | 73 | 108 | 2.6 | 6.1 | 0.00 | 0.03 | 0.01 | 60 | 1018.7 |
| 20260901155622 | 71 | 148 | 0.9 | 3.5 | 0.00 | 0.03 | 0.01 | 70 | 1018.8 |
| 20260901154622 | 70 | 45 | 0.9 | 2.6 | 0.00 | 0.03 | 0.01 | 72 | 1019.0 |
| 20260901153622 | 68 | 45 | 0.9 | 2.6 | 0.00 | 0.03 | 0.01 | 76 | 1019.0 |
| 20260901152622 | 67 | 45 | 0.0 | 2.6 | 0.00 | 0.03 | 0.01 | 79 | 1019.1 |
| 20260901151623 | 65 | 45 | 0.9 | 5.2 | 0.00 | 0.03 | 0.01 | 81 | 1019.2 |
| 20260901151055 | 65 | 45 | 1.7 | 4.3 | 0.00 | 0.03 | 0.01 | 82 | 1019.1 |
| 20260901145617 | 64 | 45 | 0.0 | 2.6 | 0.00 | 0.03 | 0.01 | 83 | 1019.1 |
| 20260901144616 | 64 | 45 | 0.0 | 0.0 | 0.00 | 0.03 | 0.01 | 84 | 1019.1 |
| 20260901144100 | 63 | 45 | 0.9 | 2.6 | 0.00 | 0.03 | 0.01 | 85 | 1019.0 |
| 20260901142617 | 62 | 45 | 0.0 | 1.7 | 0.00 | 0.03 | 0.01 | 86 | 1019.1 |
| 20260901141617 | 61 | 45 | 0.0 | 0.9 | 0.00 | 0.03 | 0.01 | 86 | 1019.0 |
| 20260901140616 | 61 | 45 | 0.0 | 1.7 | 0.00 | 0.03 | 0.01 | 87 | 1019.0 |
| 20260901135615 | 60 | 45 | 0.0 | 0.9 | 0.00 | 0.03 | 0.01 | 86 | 1018.8 |
| 20260901134615 | 60 | 45 | 0.0 | 0.9 | 0.00 | 0.03 | 0.01 | 87 | 1018.8 |
| 20260901133609 | 60 | 45 | 0.0 | 1.7 | 0.00 | 0.03 | 0.01 | 87 | 1018.8 |
| 20260901133054 | 60 | 45 | 0.9 | 3.5 | 0.00 | 0.03 | 0.01 | 87 | 1018.7 |
| 20260901131609 | 59 | 45 | 0.0 | 0.0 | 0.00 | 0.03 | 0.01 | 87 | 1018.5 |
| 20260901130607 | 60 | 45 | 0.0 | 0.0 | 0.00 | 0.03 | 0.01 | 87 | 1018.3 |
| 20260901125609 | 60 | 45 | 0.0 | 1.7 | 0.00 | 0.03 | 0.01 | 86 | 1018.3 |
| 20260901124607 | 59 | 45 | 0.9 | 3.5 | 0.00 | 0.03 | 0.01 | 88 | 1018.0 |
| 20260901124044 | 59 | 45 | 0.9 | 1.7 | 0.00 | 0.03 | 0.01 | 88 | 1017.9 |
| 20260901122606 | 59 | 45 | 0.0 | 0.0 | 0.00 | 0.03 | 0.01 | 89 | 1017.8 |
| 20260901121606 | 59 | 45 | 0.0 | 0.0 | 0.00 | 0.03 | 0.01 | 88 | 1017.7 |
| 20260901120607 | 59 | 45 | 0.0 | 0.0 | 0.00 | 0.03 | 0.01 | 88 | 1017.8 |
| 20260901115606 | 60 | 45 | 0.0 | 0.0 | 0.00 | 0.03 | 0.01 | 87 | 1017.9 |
| 20260901114606 | 60 | 45 | 0.0 | 0.0 | 0.00 | 0.03 | 0.01 | 87 | 1017.8 |
| 20260901113605 | 60 | 45 | 0.0 | 0.0 | 0.00 | 0.03 | 0.01 | 87 | 1017.8 |
| 20260901112607 | 60 | 45 | 0.0 | 0.0 | 0.00 | 0.03 | 0.01 | 87 | 1017.8 |
| 20260901111606 | 61 | 45 | 0.0 | 0.0 | 0.00 | 0.03 | 0.01 | 86 | 1017.9 |
| 20260901110606 | 61 | 45 | 0.0 | 0.9 | 0.00 | 0.03 | 0.01 | 85 | 1017.8 |
| 20260901105606 | 61 | 45 | 0.0 | 0.9 | 0.00 | 0.03 | 0.01 | 87 | 1017.9 |
| 20260901105051 | 60 | 45 | 0.0 | 0.9 | 0.00 | 0.03 | 0.01 | 88 | 1018.0 |
| 20260901103606 | 61 | 45 | 0.0 | 0.0 | 0.00 | 0.03 | 0.01 | 87 | 1018.0 |
| 20260901102606 | 61 | 45 | 0.0 | 0.9 | 0.00 | 0.03 | 0.01 | 86 | 1018.1 |
| 20260901101606 | 62 | 45 | 0.0 | 1.7 | 0.00 | 0.03 | 0.01 | 85 | 1018.3 |
| 20260901100606 | 62 | 45 | 0.0 | 0.9 | 0.00 | 0.03 | 0.01 | 84 | 1018.5 |
| 20260901095607 | 62 | 45 | 0.0 | 0.0 | 0.00 | 0.03 | 0.01 | 85 | 1018.4 |
| 20260901094601 | 62 | 45 | 0.0 | 0.9 | 0.00 | 0.03 | 0.01 | 86 | 1018.5 |
| 20260901093559 | 62 | 45 | 0.0 | 0.9 | 0.00 | 0.03 | 0.01 | 86 | 1018.6 |
| 20260901092559 | 62 | 45 | 0.0 | 0.9 | 0.00 | 0.03 | 0.01 | 86 | 1018.7 |
| 20260901091600 | 62 | 45 | 0.0 | 0.0 | 0.00 | 0.03 | 0.01 | 86 | 1018.8 |
| 20260901090601 | 62 | 45 | 0.0 | 0.0 | 0.00 | 0.03 | 0.01 | 87 | 1019.0 |
| 20260901085601 | 62 | 45 | 0.0 | 0.0 | 0.00 | 0.03 | 0.01 | 87 | 1019.0 |
| 20260901084559 | 62 | 45 | 0.0 | 0.0 | 0.00 | 0.03 | 0.01 | 86 | 1019.1 |
| 20260901083601 | 63 | 45 | 0.9 | 1.7 | 0.00 | 0.03 | 0.01 | 86 | 1018.8 |
| 20260901082600 | 62 | 45 | 0.0 | 1.7 | 0.00 | 0.03 | 0.01 | 87 | 1019.3 |
| 20260901081554 | 62 | 45 | 0.9 | 2.6 | 0.00 | 0.03 | 0.01 | 86 | 1019.4 |
| 20260901080553 | 62 | 45 | 0.0 | 1.7 | 0.00 | 0.03 | 0.01 | 87 | 1019.7 |
| 20260901080032 | 63 | 45 | 0.0 | 0.0 | 0.00 | 0.03 | 0.01 | 87 | 1019.8 |
| 20260901075036 | 63 | 45 | 0.0 | 2.6 | 0.00 | 0.03 | 0.01 | 86 | 1019.9 |
| 20260901073554 | 63 | 45 | 0.9 | 1.7 | 0.00 | 0.03 | 0.01 | 84 | 1020.0 |
| 20260901072555 | 63 | 45 | 0.0 | 0.9 | 0.00 | 0.03 | 0.01 | 83 | 1019.9 |
| 20260901072037 | 63 | 168 | 0.9 | 2.6 | 0.01 | 0.03 | 0.01 | 84 | 1020.0 |
| 20260901070553 | 63 | 52 | 0.0 | 0.9 | 0.01 | 0.03 | 0.01 | 87 | 1020.0 |
| 20260901065553 | 63 | 52 | 0.0 | 1.7 | 0.01 | 0.03 | 0.01 | 87 | 1019.8 |
| 20260901064548 | 63 | 85 | 0.0 | 0.0 | 0.01 | 0.03 | 0.01 | 86 | 1019.8 |
| 20260901063548 | 63 | 85 | 0.9 | 3.5 | 0.01 | 0.03 | 0.01 | 86 | 1019.8 |
| 20260901062548 | 64 | 140 | 0.0 | 2.6 | 0.01 | 0.03 | 0.01 | 84 | 1019.3 |
| 20260901061548 | 64 | 149 | 1.7 | 4.3 | 0.00 | 0.02 | 0.00 | 84 | 1020.1 |
| 20260901060547 | 62 | 225 | 0.0 | 0.9 | 0.00 | 0.02 | 0.00 | 87 | 1019.7 |
| 20260901055548 | 63 | 231 | 0.0 | 0.0 | 0.00 | 0.02 | 0.02 | 86 | 1019.5 |
| 20260901054945 | 63 | 231 | 0.0 | 0.0 | 0.00 | 0.02 | 0.02 | 84 | 1019.4 |
| 20260901054726 | 63 | 231 | 0.0 | 0.9 | 0.00 | 0.02 | 0.02 | 86 | 1019.4 |
| 20260901053034 | 63 | 231 | 0.0 | 0.9 | 0.00 | 0.02 | 0.02 | 85 | 1019.7 |
| 20260901051542 | 64 | 231 | 0.0 | 0.9 | 0.00 | 0.02 | 0.02 | 84 | 1019.8 |
| 20260901050541 | 64 | 226 | 0.0 | 2.6 | 0.00 | 0.02 | 0.02 | 84 | 1019.9 |
| 20260901045541 | 63 | 224 | 0.9 | 3.5 | 0.00 | 0.02 | 0.02 | 85 | 1019.9 |
| 20260901045024 | 63 | 224 | 0.0 | 1.7 | 0.00 | 0.02 | 0.02 | 86 | 1020.0 |
| 20260901043541 | 63 | 224 | 0.9 | 3.5 | 0.00 | 0.02 | 0.02 | 86 | 1020.1 |
| 20260901042541 | 62 | 297 | 0.0 | 1.7 | 0.00 | 0.02 | 0.02 | 86 | 1019.7 |
| 20260901042014 | 63 | 297 | 0.0 | 0.9 | 0.00 | 0.02 | 0.02 | 86 | 1019.7 |
| 20260901040542 | 63 | 328 | 0.0 | 0.0 | 0.00 | 0.02 | 0.02 | 87 | 1019.7 |
| 20260901040021 | 63 | 321 | 0.9 | 2.6 | 0.00 | 0.02 | 0.02 | 87 | 1019.8 |
| 20260901035455 | 63 | 185 | 0.0 | 1.7 | 0.01 | 0.02 | 0.02 | 84 | 1020.4 |
| 20260901033535 | 64 | 52 | 0.9 | 5.2 | 0.02 | 0.02 | 0.02 | 84 | 1020.8 |
| 20260901032536 | 65 | 53 | 2.6 | 7.8 | 0.02 | 0.02 | 0.02 | 81 | 1020.9 |
| 20260901031536 | 65 | 101 | 0.9 | 3.5 | 0.02 | 0.02 | 0.02 | 79 | 1021.4 |
| 20260901030536 | 65 | 178 | 0.0 | 5.2 | 0.02 | 0.02 | 0.02 | 79 | 1021.2 |
| 20260901025534 | 66 | 166 | 4.3 | 7.8 | 0.02 | 0.02 | 0.02 | 74 | 1021.1 |
| 20260901024536 | 67 | 145 | 13.0 | 21.7 | 0.01 | 0.01 | 0.02 | 71 | 1020.9 |
| 20260901023536 | 72 | 156 | 6.1 | 16.5 | 0.00 | 0.00 | 0.00 | 55 | 1020.1 |
| 20260901022537 | 72 | 262 | 0.9 | 2.6 | 0.00 | 0.00 | 0.00 | 53 | 1019.0 |
| 20260901022011 | 72 | 225 | 0.9 | 2.6 | 0.00 | 0.00 | 0.00 | 54 | 1018.6 |
| 20260901020534 | 72 | 225 | 0.9 | 2.6 | 0.00 | 0.00 | 0.00 | 55 | 1018.5 |
| 20260901020016 | 72 | 232 | 1.7 | 4.3 | 0.00 | 0.00 | 0.00 | 55 | 1018.4 |
| 20260901014533 | 72 | 225 | 1.7 | 5.2 | 0.00 | 0.00 | 0.00 | 56 | 1018.5 |
| 20260901013532 | 72 | 276 | 2.6 | 7.8 | 0.00 | 0.00 | 0.00 | 57 | 1018.6 |
| 20260901013012 | 72 | 225 | 4.3 | 8.7 | 0.00 | 0.00 | 0.00 | 57 | 1018.6 |
| 20260901011533 | 73 | 199 | 6.1 | 17.4 | 0.00 | 0.00 | 0.00 | 55 | 1018.5 |
| 20260901010532 | 73 | 165 | 7.8 | 16.5 | 0.00 | 0.00 | 0.00 | 53 | 1018.4 |
| 20260901005534 | 73 | 233 | 6.1 | 12.2 | 0.00 | 0.00 | 0.00 | 53 | 1018.3 |
| 20260901004533 | 73 | 234 | 7.8 | 16.5 | 0.00 | 0.00 | 0.00 | 53 | 1018.6 |
| 20260901003532 | 74 | 210 | 8.7 | 19.1 | 0.00 | 0.00 | 0.00 | 51 | 1018.4 |
| 20260901002532 | 78 | 211 | 5.2 | 13.0 | 0.00 | 0.00 | 0.00 | 38 | 1018.0 |
| 20260901001533 | 79 | 224 | 4.3 | 11.3 | 0.00 | 0.00 | 0.00 | 38 | 1017.9 |
| 20260901000532 | 79 | 260 | 5.2 | 11.3 | 0.00 | 0.00 | 0.00 | 38 | 1017.7 |
| 20260831235532 | 80 | 266 | 5.2 | 12.2 | 0.00 | 0.00 | 0.00 | 37 | 1017.7 |
| 20260831234534 | 80 | 284 | 5.2 | 10.4 | 0.00 | 0.00 | 0.00 | 36 | 1017.7 |
| 20260831233534 | 81 | 225 | 5.2 | 11.3 | 0.00 | 0.00 | 0.00 | 36 | 1017.6 |
| 20260831232532 | 82 | 294 | 2.6 | 5.2 | 0.00 | 0.00 | 0.00 | 36 | 1017.6 |
| 20260831231533 | 83 | 302 | 1.7 | 3.5 | 0.00 | 0.00 | 0.00 | 35 | 1017.7 |
| 20260831230532 | 83 | 342 | 0.0 | 0.9 | 0.00 | 0.00 | 0.00 | 35 | 1017.7 |
| 20260831225530 | 83 | 343 | 0.0 | 3.5 | 0.00 | 0.00 | 0.00 | 32 | 1017.8 |
| 20260831224532 | 84 | 79 | 0.0 | 3.5 | 0.00 | 0.00 | 0.00 | 33 | 1017.8 |
| 20260831223531 | 83 | 79 | 0.9 | 2.6 | 0.00 | 0.00 | 0.00 | 35 | 1017.8 |
| 20260831222526 | 83 | 79 | 0.9 | 4.3 | 0.00 | 0.00 | 0.00 | 32 | 1017.9 |
| 20260831221525 | 83 | 52 | 0.9 | 3.5 | 0.00 | 0.00 | 0.00 | 34 | 1018.0 |
| 20260831220524 | 83 | 53 | 1.7 | 5.2 | 0.00 | 0.00 | 0.00 | 32 | 1018.0 |
| 20260831215524 | 83 | 82 | 2.6 | 7.0 | 0.00 | 0.00 | 0.00 | 35 | 1018.0 |
| 20260831215003 | 83 | 52 | 2.6 | 5.2 | 0.00 | 0.00 | 0.00 | 33 | 1018.0 |
| 20260831213525 | 83 | 92 | 2.6 | 6.1 | 0.00 | 0.00 | 0.00 | 32 | 1018.1 |
| 20260831213007 | 83 | 91 | 2.6 | 7.8 | 0.00 | 0.00 | 0.00 | 34 | 1018.4 |
| 20260831211526 | 83 | 47 | 2.6 | 7.0 | 0.00 | 0.00 | 0.00 | 33 | 1018.6 |
| 20260831210524 | 82 | 53 | 2.6 | 7.0 | 0.00 | 0.00 | 0.00 | 33 | 1018.6 |
| 20260831205517 | 83 | 79 | 2.6 | 7.0 | 0.00 | 0.00 | 0.00 | 35 | 1018.7 |
| 20260831204516 | 82 | 79 | 3.5 | 7.8 | 0.00 | 0.00 | 0.00 | 33 | 1018.8 |
| 20260831203518 | 83 | 52 | 2.6 | 6.1 | 0.00 | 0.00 | 0.00 | 34 | 1019.0 |
| 20260831202517 | 83 | 52 | 1.7 | 5.2 | 0.00 | 0.01 | 0.00 | 34 | 1019.1 |
| 20260831201517 | 83 | 48 | 1.7 | 6.1 | 0.00 | 0.09 | 0.00 | 37 | 1019.3 |
| 20260831200516 | 83 | 81 | 1.7 | 5.2 | 0.00 | 0.09 | 0.00 | 37 | 1019.3 |
| 20260831195516 | 82 | 44 | 1.7 | 4.3 | 0.00 | 0.09 | 0.00 | 41 | 1019.4 |
| 20260831194518 | 82 | 53 | 1.7 | 6.1 | 0.00 | 0.09 | 0.00 | 43 | 1019.5 |
| 20260831193957 | 80 | 70 | 2.6 | 10.4 | 0.00 | 0.09 | 0.00 | 43 | 1019.7 |
| 20260831192512 | 80 | 79 | 1.7 | 6.1 | 0.00 | 0.11 | 0.00 | 42 | 1019.8 |
| 20260831191510 | 81 | 46 | 1.7 | 5.2 | 0.00 | 0.11 | 0.00 | 41 | 1019.9 |
| 20260831190510 | 80 | 94 | 2.6 | 7.0 | 0.00 | 0.11 | 0.00 | 40 | 1020.1 |
| 20260831185510 | 80 | 98 | 1.7 | 6.1 | 0.00 | 0.11 | 0.00 | 41 | 1020.2 |
| 20260831184511 | 79 | 80 | 1.7 | 6.1 | 0.00 | 0.11 | 0.00 | 44 | 1020.2 |
| 20260831183512 | 79 | 46 | 1.7 | 4.3 | 0.00 | 0.11 | 0.00 | 42 | 1020.4 |
| 20260831182510 | 78 | 46 | 0.9 | 2.6 | 0.00 | 0.11 | 0.00 | 44 | 1020.5 |
| 20260831181510 | 77 | 46 | 0.0 | 2.6 | 0.00 | 0.11 | 0.00 | 44 | 1020.6 |
| 20260831180511 | 77 | 46 | 0.0 | 1.7 | 0.00 | 0.11 | 0.00 | 45 | 1020.7 |